User: anonymous   Login
Location: Muenchen
(48.1800°N, 11.5800°E)
Time: 04:49:31
(UTC+01:00)
Language:

Cosmos 2233 Rocket - Orbit

View from above orbital plane
View from above orbital plane
View from above satellite
View from above satellite

Ground track
Ground track

The orbit data is extracted from the following two-line orbital elements,

1 22488U 93008B   14327.55007017  .00000096  00000-0  80730-4 0    28
2 22488 082.9447 055.4207 0024310 332.1468 153.9263 13.77639426 95292
Epoch (UTC): 23 November 2014 13:12:06
Eccentricity: 0.0024310
inclination: 82.9447°
perigee height: 954 km
apogee height: 990 km
right ascension of ascending node: 55.4207°
argument of perigee: 332.1468°
revolutions per day: 13.77639426
mean anomaly at epoch: 153.9263°
orbit number at epoch: 9529

The dashed part of the orbit path shows where the satellite is in the earth's shadow,  

DLR